Time,TemperatureF,DewpointF,PressureIn,WindDirection,WindDirectionDegrees,WindSpeedMPH,WindSpeedGustMPH,Humidity,HourlyPrecipIn,Conditions,Clouds,dailyrainin,SoftwareType,DateUTC
2013-02-18 00:01:00,37.0,25.0,-100.00,ESE,110,3.0,3.0,61,-99.99,,,-99.99,,2013-02-18 08:01:00,
2013-02-18 00:11:00,37.0,25.0,-100.00,ESE,110,3.0,3.0,61,-99.99,,,-99.99,,2013-02-18 08:11:00,
2013-02-18 01:02:00,34.0,24.0,-100.00,SW,230,2.0,3.0,66,-99.99,,,-99.99,,2013-02-18 09:02:00,
2013-02-18 01:11:00,34.0,24.0,-100.00,SW,230,2.0,3.0,66,-99.99,,,-99.99,,2013-02-18 09:11:00,
2013-02-18 02:01:00,36.0,27.0,-100.00,South,175,6.0,8.0,69,-99.99,,,-99.99,,2013-02-18 10:01:00,
2013-02-18 03:01:00,31.0,26.0,-100.00,ENE,60,3.0,3.0,81,-99.99,,,-99.99,,2013-02-18 11:01:00,
2013-02-18 03:11:00,31.0,26.0,-100.00,ENE,60,3.0,3.0,81,-99.99,,,-99.99,,2013-02-18 11:11:00,
2013-02-18 04:02:00,29.0,25.0,-100.00,East,101,2.0,3.0,84,-99.99,,,-99.99,,2013-02-18 12:02:00,
2013-02-18 04:11:00,29.0,25.0,-100.00,East,101,2.0,3.0,84,-99.99,,,-99.99,,2013-02-18 12:11:00,
2013-02-18 05:02:00,30.0,26.0,-100.00,SE,128,5.0,6.0,84,-99.99,,,-99.99,,2013-02-18 13:02:00,
2013-02-18 05:12:00,30.0,26.0,-100.00,SE,128,5.0,6.0,84,-99.99,,,-99.99,,2013-02-18 13:12:00,
2013-02-18 06:02:00,29.0,26.0,-100.00,NNW,327,1.0,2.0,88,-99.99,,,-99.99,,2013-02-18 14:02:00,
2013-02-18 06:11:00,29.0,26.0,-100.00,NNW,327,1.0,2.0,88,-99.99,,,-99.99,,2013-02-18 14:11:00,
2013-02-18 07:02:00,28.0,26.0,-100.00,NW,318,3.0,5.0,92,-99.99,,,-99.99,,2013-02-18 15:02:00,
2013-02-18 07:11:00,28.0,26.0,-100.00,NW,318,3.0,5.0,92,-99.99,,,-99.99,,2013-02-18 15:11:00,
2013-02-18 08:02:00,29.0,26.0,-100.00,WNW,290,6.0,7.0,88,-99.99,,,-99.99,,2013-02-18 16:02:00,
2013-02-18 08:11:00,29.0,26.0,-100.00,WNW,290,6.0,7.0,88,-99.99,,,-99.99,,2013-02-18 16:11:00,
2013-02-18 09:03:00,31.0,27.0,-100.00,NW,308,7.0,10.0,84,-99.99,,,-99.99,,2013-02-18 17:03:00,
2013-02-18 09:11:00,31.0,27.0,-100.00,NW,308,7.0,10.0,84,-99.99,,,-99.99,,2013-02-18 17:11:00,
2013-02-18 11:02:00,39.0,28.0,-100.00,NW,315,7.0,12.0,64,-99.99,,,-99.99,,2013-02-18 19:02:00,
2013-02-18 11:12:00,39.0,28.0,-100.00,NW,315,7.0,12.0,64,-99.99,,,-99.99,,2013-02-18 19:12:00,
2013-02-18 12:02:00,43.0,28.0,-100.00,NNW,340,7.0,13.0,55,-99.99,,,-99.99,,2013-02-18 20:02:00,
2013-02-18 12:12:00,43.0,28.0,-100.00,NNW,340,7.0,13.0,55,-99.99,,,-99.99,,2013-02-18 20:12:00,
2013-02-18 13:02:00,43.0,28.0,-100.00,NNE,29,5.0,9.0,55,-99.99,,,-99.99,,2013-02-18 21:02:00,
2013-02-18 13:12:00,43.0,28.0,-100.00,NNE,29,5.0,9.0,55,-99.99,,,-99.99,,2013-02-18 21:12:00,
2013-02-18 14:02:00,44.0,27.0,-100.00,NE,56,3.0,9.0,50,-99.99,,,-99.99,,2013-02-18 22:02:00,
2013-02-18 14:12:00,44.0,27.0,-100.00,NE,56,3.0,9.0,50,-99.99,,,-99.99,,2013-02-18 22:12:00,
2013-02-18 15:02:00,44.0,27.0,-100.00,NNE,33,3.0,6.0,50,-99.99,,,-99.99,,2013-02-18 23:02:00,
2013-02-18 15:12:00,44.0,27.0,-100.00,NNE,33,3.0,6.0,50,-99.99,,,-99.99,,2013-02-18 23:12:00,
2013-02-18 16:02:00,45.0,28.0,-100.00,NNW,328,2.0,3.0,51,-99.99,,,-99.99,,2013-02-19 00:02:00,
2013-02-18 16:12:00,45.0,28.0,-100.00,NNW,328,2.0,3.0,51,-99.99,,,-99.99,,2013-02-19 00:12:00,
2013-02-18 18:02:00,43.0,28.0,-100.00,SE,143,3.0,3.0,55,-99.99,,,-99.99,,2013-02-19 02:02:00,
2013-02-18 18:12:00,43.0,28.0,-100.00,SE,143,3.0,3.0,55,-99.99,,,-99.99,,2013-02-19 02:12:00,
2013-02-18 18:54:00,41.0,28.0,-100.00,South,187,2.0,3.0,59,-99.99,,,-99.99,,2013-02-19 02:54:00,
2013-02-18 19:05:00,41.0,28.0,-100.00,South,187,2.0,3.0,59,-99.99,,,-99.99,,2013-02-19 03:05:00,
2013-02-18 19:13:00,41.0,28.0,-100.00,South,187,2.0,3.0,59,-99.99,,,-99.99,,2013-02-19 03:13:00,
2013-02-18 20:02:00,40.0,28.0,-100.00,WNW,287,3.0,5.0,61,-99.99,,,-99.99,,2013-02-19 04:02:00,
2013-02-18 20:13:00,40.0,28.0,-100.00,WNW,287,3.0,5.0,61,-99.99,,,-99.99,,2013-02-19 04:13:00,
2013-02-18 21:02:00,39.0,29.0,-100.00,West,281,3.0,3.0,67,-99.99,,,-99.99,,2013-02-19 05:02:00,
2013-02-18 21:12:00,39.0,29.0,-100.00,West,281,3.0,3.0,67,-99.99,,,-99.99,,2013-02-19 05:12:00,
2013-02-18 22:02:00,36.0,28.0,-100.00,NNW,329,2.0,3.0,72,-99.99,,,-99.99,,2013-02-19 06:02:00,
2013-02-18 22:11:00,36.0,28.0,-100.00,NNW,329,2.0,3.0,72,-99.99,,,-99.99,,2013-02-19 06:11:00,
2013-02-18 23:01:00,36.0,29.0,-100.00,North,358,2.0,3.0,75,-99.99,,,-99.99,,2013-02-19 07:01:00,
2013-02-18 23:11:00,36.0,29.0,-100.00,North,358,2.0,3.0,75,-99.99,,,-99.99,,2013-02-19 07:11:00,